Погода в Луганске

Украина / Луганская область     48°34′26″N   39°18′27″E
темп.,
°C
ветер,
м/с
пор.,
м/с
влажн.,
%
обл.,
%
осадки,
мм/ч
давл.,
гПа
погр.,
м
31 июля, сб
сб3100:00+19ююв118362 0.2 100911
03:00+20юз2276100 0.2 100912
06:00+20юз11804 0.0 100931
09:00+25зюз236412 0.0 1009666
12:00+29юз224725 0.4 10091679
15:00+31зюз224067 0.6 10091946
18:00+28ссз4750100 0.0 1009359
21:00+26с37562 0.0 1010171
1 августа, вс
вс100:00+23с22665 0.0 101113
03:00+22ссв117031 0.0 101211
06:00+22ссз11715 0.0 101214
09:00+28ссв33491 0.0 1012579
12:00+33вюв34311 0.0 10111896
15:00+36ю132352 0.0 10103132
18:00+32вюв223045 0.0 1010209
21:00+27с23395 0.0 101139
2 августа, пн
пн200:00+23св236076 0.0 101158
03:00+23в115553 0.0 101111
06:00+24в115354 0.0 101114
09:00+31юв12325 0.0 1011444
12:00+36ю33190 0.0 10103363
15:00+37юз43175 0.0 10093783
18:00+36юз23200 0.0 10081742
21:00+29з38401 0.0 1009148
3 августа, вт
вт300:00+26ссз114720 0.0 100911
03:00+26зюз114598 0.0 100911
06:00+24ссз34524 0.1 101087
09:00+30ссз11395 0.1 1010404
12:00+35зюз45255 0.0 10092320
15:00+35зсз873019 0.0 10082147
18:00+32зсз6835100 0.0 10081278
21:00+26сз5958100 0.3 1010325
4 августа, ср
ср400:00+22зсз0182100 2.4 101214
03:00+21ссз3785100 3.8 1012155
06:00+20ссз36860 0.0 1014219
09:00+24с44602 0.1 1015697
12:00+29ссз443712 0.0 10142037
15:00+30ссз4429100 0.0 10142752
18:00+28с663281 0.0 10141364
21:00+23с410440 0.0 1016211